Radiation Dose at Monitoring Post of Fukushima Daini Nuclear Power Station
Date,Time,MP-1(microSv/h),MP-2(microSv/h),MP-3(microSv/h),MP-4(microSv/h),MP-5(microSv/h),MP-6(microSv/h),MP-7(microSv/h),Wind Direction,Wind Velocity(m/s),Rain
2017/08/11,00:00,0.348,0.212,0.350,0.326,0.312,0.170,0.105,north,6.7,Yes
2017/08/11,00:10,0.346,0.211,0.347,0.322,0.315,0.171,0.106,north,6.3,Yes
2017/08/11,00:20,0.349,0.213,0.350,0.325,0.313,0.170,0.106,north,4.9,Yes
2017/08/11,00:30,0.345,0.212,0.347,0.324,0.313,0.170,0.105,north-northeast,5.0,Yes
2017/08/11,00:40,0.349,0.213,0.349,0.323,0.316,0.170,0.105,north,5.4,Yes
2017/08/11,00:50,0.346,0.212,0.347,0.323,0.312,0.169,0.106,north,5.5,Yes
2017/08/11,01:00,0.345,0.211,0.347,0.321,0.316,0.171,0.105,north,6.3,Yes
2017/08/11,01:10,0.348,0.212,0.348,0.324,0.313,0.170,0.105,north-northeast,5.9,Yes
2017/08/11,01:20,0.344,0.210,0.346,0.321,0.314,0.170,0.104,north,5.2,Yes
2017/08/11,01:30,0.348,0.212,0.348,0.324,0.313,0.170,0.105,north,4.5,Yes
2017/08/11,01:40,0.344,0.212,0.343,0.322,0.312,0.168,0.104,north,4.3,Yes
2017/08/11,01:50,0.345,0.212,0.347,0.323,0.316,0.169,0.105,north,5.1,Yes
2017/08/11,02:00,0.346,0.210,0.343,0.322,0.312,0.168,0.104,north,4.2,Yes
2017/08/11,02:10,0.343,0.212,0.345,0.321,0.316,0.169,0.106,north,3.5,Yes
2017/08/11,02:20,0.347,0.210,0.346,0.322,0.314,0.168,0.105,north,4.2,Yes
2017/08/11,02:30,0.341,0.211,0.343,0.320,0.312,0.168,0.104,north,4.0,Yes
2017/08/11,02:40,0.343,0.211,0.346,0.323,0.315,0.169,0.105,north,3.9,Yes
2017/08/11,02:50,0.344,0.209,0.342,0.320,0.309,0.168,0.104,north,5.2,Yes
2017/08/11,03:00,0.343,0.211,0.345,0.322,0.316,0.168,0.104,north-northeast,4.8,Yes
2017/08/11,03:10,0.345,0.210,0.343,0.322,0.313,0.169,0.104,north,4.9,Yes
2017/08/11,03:20,0.341,0.211,0.346,0.320,0.312,0.167,0.104,north,4.3,Yes
2017/08/11,03:30,0.345,0.209,0.343,0.321,0.316,0.169,0.104,north,4.0,Yes
2017/08/11,03:40,0.341,0.212,0.343,0.321,0.311,0.168,0.104,north,3.3,Yes
2017/08/11,03:50,0.342,0.210,0.345,0.320,0.315,0.166,0.105,north,3.9,Yes
2017/08/11,04:00,0.344,0.210,0.342,0.321,0.311,0.168,0.103,north,3.6,Yes
2017/08/11,04:10,0.341,0.210,0.345,0.319,0.313,0.167,0.104,north,4.7,Yes
2017/08/11,04:20,0.345,0.209,0.343,0.322,0.313,0.168,0.104,north,4.6,No
2017/08/11,04:30,0.341,0.209,0.345,0.319,0.311,0.168,0.104,north,3.9,Yes
2017/08/11,04:40,0.344,0.209,0.343,0.320,0.316,0.167,0.104,north-northeast,5.2,No
2017/08/11,04:50,0.343,0.210,0.344,0.320,0.312,0.168,0.104,north,4.7,No
2017/08/11,05:00,0.343,0.209,0.345,0.320,0.314,0.168,0.104,north,3.6,Yes
2017/08/11,05:10,0.345,0.211,0.344,0.323,0.313,0.167,0.104,north,3.5,Yes
2017/08/11,05:20,0.340,0.211,0.346,0.318,0.313,0.168,0.104,north,3.0,Yes
2017/08/11,05:30,0.345,0.209,0.344,0.324,0.314,0.167,0.104,north,3.8,Yes
2017/08/11,05:40,0.343,0.210,0.345,0.320,0.310,0.169,0.103,north,4.3,Yes
2017/08/11,05:50,0.342,0.209,0.342,0.320,0.314,0.167,0.103,north,3.7,Yes
2017/08/11,06:00,0.346,0.210,0.344,0.321,0.312,0.167,0.104,north-northeast,4.2,Yes
2017/08/11,06:10,0.342,0.209,0.346,0.319,0.312,0.168,0.104,north-northeast,4.1,Yes
2017/08/11,06:20,0.346,0.210,0.341,0.322,0.313,0.167,0.104,northeast,4.5,Yes
2017/08/11,06:30,0.344,0.210,0.344,0.318,0.310,0.167,0.104,northeast,4.5,Yes
2017/08/11,06:40,0.343,0.209,0.342,0.321,0.314,0.168,0.104,northeast,4.4,Yes
2017/08/11,06:50,0.347,0.210,0.345,0.320,0.312,0.167,0.103,north-northeast,5.3,Yes
2017/08/11,07:00,0.341,0.209,0.343,0.319,0.312,0.168,0.104,north-northeast,4.2,Yes
2017/08/11,07:10,0.347,0.210,0.343,0.321,0.313,0.166,0.104,north-northeast,4.8,Yes
2017/08/11,07:20,0.343,0.210,0.344,0.318,0.312,0.168,0.104,north-northeast,5.3,Yes
2017/08/11,07:30,0.343,0.210,0.341,0.323,0.315,0.167,0.104,north-northeast,6.7,Yes
2017/08/11,07:40,0.345,0.208,0.346,0.321,0.312,0.167,0.103,north-northeast,5.6,Yes
2017/08/11,07:50,0.342,0.210,0.341,0.319,0.312,0.168,0.103,north-northeast,4.4,Yes
2017/08/11,08:00,0.346,0.210,0.342,0.322,0.313,0.167,0.103,north-northeast,5.5,Yes
2017/08/11,08:10,0.344,0.210,0.345,0.320,0.311,0.168,0.105,north-northeast,4.7,Yes
2017/08/11,08:20,0.343,0.210,0.340,0.321,0.314,0.169,0.105,northeast,5.0,Yes
2017/08/11,08:30,0.347,0.209,0.346,0.320,0.313,0.168,0.103,northeast,5.0,Yes
2017/08/11,08:40,0.343,0.211,0.344,0.320,0.314,0.170,0.104,northeast,5.0,Yes
2017/08/11,08:50,0.345,0.210,0.343,0.322,0.317,0.169,0.105,north,3.3,Yes
2017/08/11,09:00,0.345,0.209,0.345,0.320,0.312,0.169,0.105,north-northwest,4.5,Yes
2017/08/11,09:10,0.343,0.211,0.343,0.323,0.316,0.171,0.106,north-northwest,3.9,Yes
2017/08/11,09:20,0.346,0.210,0.346,0.321,0.316,0.169,0.104,north-northwest,3.8,Yes
2017/08/11,09:30,0.345,0.212,0.343,0.320,0.311,0.169,0.103,north-northwest,4.3,Yes
2017/08/11,09:40,0.345,0.210,0.343,0.322,0.316,0.169,0.105,north,4.0,Yes
2017/08/11,09:50,0.347,0.210,0.344,0.318,0.313,0.168,0.107,north,3.9,Yes
2017/08/11,10:00,0.344,0.212,0.343,0.323,0.314,0.168,0.107,north,4.8,Yes
2017/08/11,10:10,0.347,0.209,0.346,0.322,0.316,0.169,0.107,north,5.2,Yes
2017/08/11,10:20,0.346,0.211,0.343,0.319,0.311,0.167,0.107,north,4.9,Yes
2017/08/11,10:30,0.343,0.210,0.345,0.323,0.313,0.168,0.107,north,4.7,Yes
2017/08/11,10:40,0.348,0.211,0.346,0.318,0.312,0.167,0.107,north,4.7,No
2017/08/11,10:50,0.344,0.211,0.341,0.321,0.312,0.167,0.106,north,4.4,Yes
2017/08/11,11:00,0.346,0.208,0.345,0.322,0.317,0.169,0.107,north,4.5,Yes
2017/08/11,11:10,0.346,0.212,0.344,0.319,0.314,0.168,0.107,north,4.7,Yes
2017/08/11,11:20,0.343,0.210,0.344,0.323,0.315,0.167,0.108,north,3.6,Yes
2017/08/11,11:30,0.345,0.211,0.346,0.319,0.316,0.170,0.107,north,3.9,Yes
2017/08/11,11:40,0.347,0.211,0.343,0.320,0.311,0.167,0.106,north,4.1,Yes
2017/08/11,11:50,0.345,0.210,0.347,0.322,0.315,0.168,0.107,north-northeast,4.7,Yes
2017/08/11,12:00,0.348,0.212,0.343,0.319,0.314,0.169,0.107,north-northeast,4.8,Yes
2017/08/11,12:10,0.344,0.212,0.345,0.324,0.313,0.168,0.109,north-northeast,5.9,Yes
2017/08/11,12:20,0.348,0.213,0.345,0.322,0.316,0.170,0.108,north-northeast,6.9,Yes
2017/08/11,12:30,0.345,0.213,0.344,0.320,0.313,0.170,0.109,north-northeast,5.4,Yes
2017/08/11,12:40,0.345,0.212,0.346,0.321,0.316,0.169,0.109,north-northeast,4.0,Yes
2017/08/11,12:50,0.348,0.213,0.343,0.319,0.315,0.170,0.108,north,5.3,Yes
2017/08/11,13:00,0.343,0.212,0.345,0.321,0.313,0.169,0.109,north,4.7,Yes
2017/08/11,13:10,0.346,0.211,0.345,0.321,0.316,0.170,0.107,north-northeast,5.6,Yes
2017/08/11,13:20,0.344,0.210,0.342,0.321,0.311,0.170,0.108,north-northeast,5.2,Yes
2017/08/11,13:30,0.344,0.212,0.345,0.323,0.314,0.167,0.108,north,6.0,Yes
2017/08/11,13:40,0.346,0.212,0.342,0.318,0.314,0.168,0.107,north,5.3,Yes
2017/08/11,13:50,0.342,0.210,0.343,0.321,0.310,0.168,0.107,north,2.8,Yes
2017/08/11,14:00,0.345,0.211,0.343,0.320,0.316,0.167,0.107,north-northeast,4.2,Yes
2017/08/11,14:10,0.344,0.208,0.343,0.321,0.313,0.168,0.106,north,4.3,Yes
2017/08/11,14:20,0.342,0.210,0.347,0.322,0.313,0.168,0.107,north,3.3,No
2017/08/11,14:30,0.346,0.210,0.342,0.320,0.315,0.167,0.107,north,4.7,Yes
2017/08/11,14:40,0.344,0.208,0.344,0.321,0.312,0.169,0.106,north,3.6,Yes
2017/08/11,14:50,0.343,0.211,0.346,0.320,0.313,0.167,0.107,north,4.5,No
2017/08/11,15:00,0.345,0.209,0.342,0.319,0.316,0.167,0.106,north,5.3,No
2017/08/11,15:10,0.342,0.211,0.345,0.322,0.311,0.168,0.106,north,5.3,No
2017/08/11,15:20,0.346,0.211,0.344,0.320,0.316,0.168,0.108,north-northeast,6.4,No
2017/08/11,15:30,0.346,0.210,0.343,0.319,0.313,0.166,0.107,north-northeast,6.9,No
2017/08/11,15:40,0.343,0.212,0.345,0.323,0.313,0.168,0.106,north,7.2,No
2017/08/11,15:50,0.347,0.210,0.344,0.319,0.315,0.168,0.107,north,6.8,No
2017/08/11,16:00,0.345,0.210,0.343,0.321,0.313,0.167,0.106,north,6.4,No
2017/08/11,16:10,0.342,0.211,0.346,0.322,0.314,0.168,0.107,north,4.7,No
2017/08/11,16:20,0.346,0.209,0.342,0.320,0.315,0.168,0.107,north,4.8,No
2017/08/11,16:30,0.344,0.210,0.347,0.322,0.314,0.168,0.107,north,3.3,No
2017/08/11,16:40,0.343,0.212,0.344,0.320,0.314,0.169,0.106,north,4.4,No
2017/08/11,16:50,0.346,0.209,0.344,0.322,0.316,0.167,0.107,north,5.0,No
2017/08/11,17:00,0.343,0.212,0.346,0.321,0.312,0.168,0.106,north,4.7,No
2017/08/11,17:10,0.346,0.210,0.342,0.319,0.316,0.169,0.106,north,5.0,No
2017/08/11,17:20,0.346,0.211,0.346,0.323,0.314,0.168,0.106,north,5.1,No
2017/08/11,17:30,0.343,0.211,0.346,0.322,0.312,0.168,0.106,north,5.8,No
2017/08/11,17:40,0.347,0.210,0.346,0.322,0.316,0.170,0.107,north,5.8,No
2017/08/11,17:50,0.346,0.211,0.347,0.323,0.312,0.168,0.106,north,5.5,No
2017/08/11,18:00,0.345,0.210,0.343,0.319,0.315,0.169,0.106,north,5.0,No
2017/08/11,18:10,0.347,0.212,0.348,0.323,0.316,0.168,0.106,north,5.3,No
2017/08/11,18:20,0.341,0.212,0.346,0.323,0.314,0.167,0.107,north,5.9,No
2017/08/11,18:30,0.347,0.210,0.345,0.321,0.316,0.168,0.107,north,5.9,No
2017/08/11,18:40,0.347,0.211,0.348,0.324,0.313,0.169,0.107,north,5.6,No
2017/08/11,18:50,0.343,0.210,0.343,0.319,0.316,0.168,0.106,north,5.5,Yes
2017/08/11,19:00,0.348,0.211,0.348,0.322,0.315,0.169,0.107,north-northwest,5.9,No
2017/08/11,19:10,0.346,0.211,0.345,0.323,0.314,0.168,0.107,north-northwest,5.9,No
2017/08/11,19:20,0.346,0.211,0.343,0.321,0.316,0.168,0.106,north-northwest,6.1,Yes
2017/08/11,19:30,0.347,0.212,0.346,0.323,0.312,0.169,0.107,north,5.8,Yes
2017/08/11,19:40,0.344,0.211,0.343,0.321,0.314,0.168,0.106,north-northwest,6.0,Yes
2017/08/11,19:50,0.347,0.211,0.347,0.323,0.316,0.170,0.108,north-northwest,6.4,Yes
2017/08/11,20:00,0.345,0.211,0.346,0.321,0.312,0.169,0.107,north-northwest,6.2,No
2017/08/11,20:10,0.345,0.212,0.346,0.320,0.316,0.169,0.108,north-northwest,6.3,No
2017/08/11,20:20,0.348,0.212,0.348,0.323,0.314,0.169,0.107,north-northwest,5.6,No
2017/08/11,20:30,0.344,0.210,0.343,0.320,0.313,0.168,0.106,north-northwest,5.2,No
2017/08/11,20:40,0.346,0.211,0.347,0.323,0.317,0.168,0.107,north-northwest,5.7,No
2017/08/11,20:50,0.346,0.211,0.345,0.322,0.312,0.170,0.107,north-northwest,6.2,No
2017/08/11,21:00,0.344,0.211,0.345,0.321,0.317,0.168,0.106,north-northwest,5.6,No
2017/08/11,21:10,0.348,0.212,0.347,0.324,0.314,0.169,0.108,north-northwest,5.6,No
2017/08/11,21:20,0.343,0.210,0.344,0.320,0.312,0.169,0.106,north-northwest,5.5,No
2017/08/11,21:30,0.346,0.213,0.347,0.324,0.316,0.168,0.107,north-northwest,5.9,No
2017/08/11,21:40,0.347,0.211,0.345,0.322,0.312,0.169,0.108,north-northwest,6.1,No
2017/08/11,21:50,0.343,0.212,0.345,0.321,0.315,0.169,0.106,north-northwest,5.9,No
2017/08/11,22:00,0.349,0.210,0.347,0.324,0.315,0.169,0.107,north-northwest,6.0,No
2017/08/11,22:10,0.344,0.210,0.346,0.322,0.312,0.170,0.106,north,6.2,No
2017/08/11,22:20,0.347,0.212,0.347,0.323,0.316,0.169,0.107,north,6.4,No
2017/08/11,22:30,0.348,0.211,0.346,0.323,0.314,0.168,0.107,north,5.9,No
2017/08/11,22:40,0.343,0.212,0.345,0.322,0.313,0.170,0.106,north,6.1,No
2017/08/11,22:50,0.347,0.213,0.348,0.323,0.316,0.168,0.107,north,6.9,No
2017/08/11,23:00,0.347,0.211,0.344,0.321,0.313,0.169,0.107,north,6.6,No
2017/08/11,23:10,0.345,0.212,0.346,0.325,0.316,0.169,0.107,north,7.0,No
2017/08/11,23:20,0.348,0.209,0.346,0.322,0.314,0.168,0.107,north,6.4,Yes
2017/08/11,23:30,0.344,0.211,0.345,0.321,0.315,0.169,0.107,north,6.7,Yes
2017/08/11,23:40,0.348,0.212,0.348,0.324,0.316,0.169,0.108,north,6.0,No
2017/08/11,23:50,0.347,0.211,0.343,0.322,0.313,0.169,0.107,north,6.5,No
